| time (UTC) | temp C | wind direction | speed KPH | gust KPH | rain 1hr cm | rain 24hr cm | rain mn cm | humidity % | barometer mb |
| 20260508063116 | 14 | 270 | 1.6 | 6.4 | 0.00 | 0.00 | 0.00 | 93 | 1016.2 |
| 20260508060116 | 14 | 248 | 1.6 | 6.4 | 0.00 | 0.00 | 0.00 | 92 | 1015.8 |
| 20260508053117 | 14 | 248 | 3.2 | 6.4 | 0.00 | 0.00 | 0.00 | 92 | 1015.9 |
| 20260508050116 | 14 | 0.0 | 6.4 | 0.00 | 0.00 | 0.00 | 91 | 1015.7 | |
| 20260508043116 | 14 | 248 | 4.8 | 12.9 | 0.00 | 0.00 | 0.00 | 91 | 1015.5 |
| 20260508040115 | 15 | 248 | 9.7 | 16.1 | 0.00 | 0.00 | 0.00 | 89 | 1015.0 |
| 20260508033136 | 15 | 248 | 11.3 | 17.7 | 0.00 | 0.00 | 0.00 | 87 | 1014.7 |
| 20260508030115 | 16 | 270 | 9.7 | 14.5 | 0.00 | 0.00 | 0.00 | 83 | 1014.2 |
| 20260508023117 | 18 | 248 | 8.0 | 16.1 | 0.00 | 0.00 | 0.00 | 78 | 1013.7 |
| 20260508020116 | 19 | 248 | 9.7 | 17.7 | 0.00 | 0.00 | 0.00 | 74 | 1013.6 |
| 20260508013115 | 20 | 270 | 8.0 | 16.1 | 0.00 | 0.00 | 0.00 | 72 | 1013.6 |
| 20260508010136 | 21 | 248 | 9.7 | 19.3 | 0.00 | 0.00 | 0.00 | 71 | 1013.6 |
| 20260508003115 | 21 | 248 | 11.3 | 19.3 | 0.00 | 0.00 | 0.00 | 69 | 1013.8 |
| 20260508000115 | 22 | 248 | 11.3 | 20.9 | 0.00 | 0.00 | 0.00 | 67 | 1013.6 |
| 20260507233115 | 22 | 248 | 12.9 | 25.7 | 0.00 | 0.00 | 0.00 | 67 | 1013.6 |
| 20260507230136 | 21 | 248 | 12.9 | 22.5 | 0.00 | 0.00 | 0.00 | 67 | 1013.6 |
| 20260507223115 | 22 | 248 | 14.5 | 32.2 | 0.00 | 0.00 | 0.00 | 67 | 1013.6 |
| 20260507220116 | 22 | 248 | 14.5 | 25.7 | 0.00 | 0.00 | 0.00 | 66 | 1013.8 |
| 20260507213115 | 22 | 225 | 11.3 | 22.5 | 0.00 | 0.00 | 0.00 | 65 | 1014.4 |
| 20260507210116 | 22 | 248 | 11.3 | 29.0 | 0.00 | 0.00 | 0.00 | 65 | 1014.5 |
| 20260507203114 | 23 | 248 | 12.9 | 27.4 | 0.00 | 0.00 | 0.00 | 64 | 1014.6 |
| 20260507200114 | 22 | 293 | 11.3 | 22.5 | 0.00 | 0.00 | 0.00 | 63 | 1014.6 |
| 20260507193114 | 22 | 293 | 11.3 | 22.5 | 0.00 | 0.00 | 0.00 | 64 | 1014.9 |
| 20260507190115 | 21 | 293 | 12.9 | 22.5 | 0.00 | 0.00 | 0.00 | 66 | 1015.2 |
| 20260507183114 | 21 | 293 | 9.7 | 20.9 | 0.00 | 0.00 | 0.00 | 69 | 1015.3 |
| 20260507180115 | 20 | 293 | 8.0 | 17.7 | 0.00 | 0.00 | 0.00 | 70 | 1015.3 |
| 20260507173114 | 19 | 338 | 6.4 | 16.1 | 0.00 | 0.00 | 0.00 | 72 | 1015.5 |
| 20260507170115 | 18 | 338 | 6.4 | 16.1 | 0.00 | 0.00 | 0.00 | 75 | 1015.6 |
| 20260507163135 | 17 | 338 | 8.0 | 16.1 | 0.00 | 0.00 | 0.00 | 79 | 1015.8 |
| 20260507160114 | 16 | 293 | 4.8 | 12.9 | 0.00 | 0.00 | 0.00 | 82 | 1016.0 |
| 20260507153114 | 15 | 248 | 1.6 | 8.0 | 0.00 | 0.00 | 0.00 | 87 | 1015.9 |
| 20260507150115 | 14 | 68 | 1.6 | 6.4 | 0.00 | 0.00 | 0.00 | 91 | 1015.9 |
| 20260507143115 | 13 | 0.0 | 3.2 | 0.00 | 0.00 | 0.00 | 94 | 1015.8 | |
| 20260507140135 | 11 | 90 | 3.2 | 6.4 | 0.00 | 0.00 | 0.00 | 93 | 1015.6 |
| 20260507133114 | 11 | 135 | 1.6 | 4.8 | 0.00 | 0.00 | 0.00 | 93 | 1015.4 |
| 20260507130115 | 11 | 113 | 4.8 | 9.7 | 0.00 | 0.00 | 0.00 | 93 | 1015.3 |
| 20260507123114 | 11 | 113 | 1.6 | 6.4 | 0.00 | 0.00 | 0.00 | 92 | 1015.1 |
| 20260507120114 | 11 | 113 | 1.6 | 6.4 | 0.00 | 0.00 | 0.00 | 91 | 1015.1 |
| 20260507113114 | 11 | 90 | 3.2 | 6.4 | 0.00 | 0.00 | 0.00 | 91 | 1015.1 |
| 20260507110113 | 12 | 0.0 | 4.8 | 0.00 | 0.00 | 0.00 | 91 | 1015.2 | |
| 20260507103113 | 12 | 0.0 | 0.0 | 0.00 | 0.00 | 0.00 | 91 | 1015.3 | |
| 20260507100113 | 12 | 0.0 | 0.0 | 0.00 | 0.00 | 0.00 | 90 | 1015.5 | |
| 20260507093114 | 12 | 0.0 | 0.0 | 0.00 | 0.00 | 0.00 | 89 | 1016.0 | |
| 20260507090135 | 12 | 0.0 | 0.0 | 0.00 | 0.00 | 0.00 | 88 | 1016.1 | |
| 20260507083113 | 12 | 113 | 3.2 | 6.4 | 0.00 | 0.00 | 0.00 | 88 | 1016.4 |
| 20260507080115 | 13 | 113 | 1.6 | 4.8 | 0.00 | 0.00 | 0.00 | 87 | 1016.7 |
| 20260507073113 | 13 | 0.0 | 8.0 | 0.00 | 0.00 | 0.00 | 86 | 1016.5 | |
| 20260507070114 | 13 | 0.0 | 0.0 | 0.00 | 0.00 | 0.00 | 85 | 1016.5 |